When you browse on this site, cookies collect data to enhance your experience and personalize the content and advertising you see.
Visit our Privacy Policy to learn more. By continuing to use the site, you agree to this use of cookies and data.
  • In Switzerland
  • List of Countries
  • For 7 days
  • Water Temperature
  • Satellite Maps
  • Weather Map
  • Weather Widgets
  • user-avatar
    Login

    Hourly Weather Tomashivka

    Today, 20 July, Saturday

    Time Temperature Precipitation Wind Pressure Humidity
    00:00 +16°C° 0 mm 2 mps 750 mmHg 87%
    01:00 +16°C° 0 mm 2 mps 750 mmHg 89%
    02:00 +15°C° 0 mm 2 mps 750 mmHg 86%
    03:00 +15°C° 0 mm 2 mps 750 mmHg 87%
    04:00 +15°C° 0 mm 2 mps 750 mmHg 88%
    05:00 +15°C° 0 mm 2 mps 751 mmHg 89%
    06:00 +17°C° 0 mm 2 mps 751 mmHg 84%
    07:00 +19°C° 0 mm 2 mps 751 mmHg 79%
    08:00 +21°C° 0 mm 3 mps 751 mmHg 74%
    09:00 +24°C° 0.1 mm 3 mps 751 mmHg 67%
    10:00 +25°C° 0.1 mm 3 mps 751 mmHg 60%
    11:00 +26°C° 0.1 mm 3 mps 752 mmHg 54%
    12:00 +26°C° 0 mm 3 mps 751 mmHg 53%
    13:00 +27°C° 0 mm 3 mps 751 mmHg 51%
    14:00 +27°C° 0 mm 3 mps 751 mmHg 50%
    15:00 +27°C° 0 mm 3 mps 751 mmHg 53%
    16:00 +27°C° 0 mm 2 mps 751 mmHg 55%
    17:00 +27°C° 0 mm 2 mps 752 mmHg 58%
    18:00 +25°C° 0 mm 2 mps 751 mmHg 63%
    19:00 +23°C° 0 mm 2 mps 751 mmHg 67%
    20:00 +21°C° 0 mm 1 mps 751 mmHg 71%
    21:00 +21°C° 0 mm 1 mps 751 mmHg 72%
    22:00 +19°C° 0 mm 2 mps 751 mmHg 72%
    23:00 +19°C° 0 mm 2 mps 752 mmHg 73%

    Tomorrow, 21 July, Sunday

    Time Temperature Precipitation Wind Pressure Humidity
    00:00 +18°C° 0 mm 2 mps 752 mmHg 75%
    01:00 +19°C° 0 mm 1 mps 752 mmHg 78%
    02:00 +18°C° 0 mm 1 mps 752 mmHg 80%
    03:00 +18°C° 0.1 mm 1 mps 752 mmHg 81%
    04:00 +18°C° 0.1 mm 1 mps 751 mmHg 82%
    05:00 +18°C° 0.1 mm 1 mps 751 mmHg 83%
    06:00 +20°C° 0 mm 1 mps 751 mmHg 77%
    07:00 +22°C° 0 mm 1 mps 751 mmHg 72%
    08:00 +23°C° 0 mm 1 mps 751 mmHg 66%
    09:00 +25°C° 0 mm 1 mps 751 mmHg 62%
    10:00 +26°C° 0 mm 2 mps 751 mmHg 59%
    11:00 +27°C° 0 mm 2 mps 751 mmHg 55%
    12:00 +28°C° 0.6 mm 2 mps 751 mmHg 54%
    13:00 +28°C° 0.6 mm 2 mps 751 mmHg 54%
    14:00 +28°C° 0.6 mm 2 mps 751 mmHg 54%
    15:00 +28°C° 0.3 mm 2 mps 751 mmHg 56%
    16:00 +28°C° 0.3 mm 1 mps 751 mmHg 57%
    17:00 +28°C° 0.3 mm 1 mps 750 mmHg 59%
    18:00 +26°C° 0.2 mm 1 mps 750 mmHg 65%
    19:00 +24°C° 0.2 mm 1 mps 750 mmHg 70%
    20:00 +21°C° 0.2 mm 2 mps 750 mmHg 75%
    21:00 +21°C° 0.2 mm 2 mps 750 mmHg 78%
    22:00 +20°C° 0.2 mm 2 mps 750 mmHg 80%
    23:00 +19°C° 0.2 mm 2 mps 751 mmHg 82%

    Day after tomorrow, 22 July, Monday

    Time Temperature Precipitation Wind Pressure Humidity
    00:00 +20°C° 0 mm 1 mps 750 mmHg 83%
    01:00 +20°C° 0 mm 1 mps 750 mmHg 85%
    02:00 +19°C° 0 mm 1 mps 750 mmHg 86%
    03:00 +19°C° 0 mm 1 mps 750 mmHg 87%
    04:00 +19°C° 0 mm 1 mps 750 mmHg 87%
    05:00 +19°C° 0 mm 1 mps 750 mmHg 87%
    06:00 +21°C° 0 mm 1 mps 750 mmHg 83%
    07:00 +23°C° 0 mm 1 mps 750 mmHg 78%
    08:00 +24°C° 0 mm 2 mps 749 mmHg 73%
    09:00 +25°C° 0.7 mm 2 mps 749 mmHg 70%
    10:00 +26°C° 0.7 mm 2 mps 749 mmHg 66%
    11:00 +27°C° 0.7 mm 2 mps 749 mmHg 63%
    12:00 +26°C° 0.9 mm 2 mps 749 mmHg 69%
    13:00 +25°C° 0.9 mm 2 mps 749 mmHg 75%
    14:00 +24°C° 0.9 mm 2 mps 748 mmHg 81%
    15:00 +24°C° 0.3 mm 2 mps 748 mmHg 80%
    16:00 +25°C° 0.3 mm 1 mps 748 mmHg 78%
    17:00 +25°C° 0.3 mm 1 mps 748 mmHg 77%
    18:00 +24°C° 0.3 mm 1 mps 748 mmHg 80%
    19:00 +23°C° 0.3 mm 1 mps 748 mmHg 83%
    20:00 +21°C° 0.3 mm 1 mps 748 mmHg 87%
    21:00 +21°C° 0 mm 1 mps 748 mmHg 89%
    22:00 +19°C° 0 mm 2 mps 748 mmHg 91%
    23:00 +19°C° 0 mm 2 mps 748 mmHg 93%

    23 July, Tuesday

    Time Temperature Precipitation Wind Pressure Humidity
    00:00 +18°C° 0 mm 3 mps 747 mmHg 94%
    01:00 +18°C° 0 mm 3 mps 747 mmHg 95%
    02:00 +18°C° 0 mm 3 mps 747 mmHg 96%
    03:00 +17°C° 0 mm 3 mps 747 mmHg 96%
    04:00 +17°C° 0 mm 3 mps 747 mmHg 96%
    05:00 +17°C° 0 mm 3 mps 747 mmHg 96%
    06:00 +18°C° 0 mm 4 mps 747 mmHg 93%
    07:00 +19°C° 0 mm 4 mps 747 mmHg 90%
    08:00 +20°C° 0 mm 4 mps 747 mmHg 87%
    09:00 +21°C° 0 mm 4 mps 747 mmHg 82%
    10:00 +22°C° 0 mm 4 mps 747 mmHg 76%
    11:00 +23°C° 0 mm 4 mps 747 mmHg 71%
    12:00 +23°C° 0.1 mm 4 mps 747 mmHg 70%
    13:00 +23°C° 0.1 mm 5 mps 747 mmHg 70%
    14:00 +23°C° 0.1 mm 5 mps 747 mmHg 70%
    15:00 +23°C° 0 mm 5 mps 747 mmHg 72%
    16:00 +22°C° 0 mm 5 mps 747 mmHg 73%
    17:00 +21°C° 0 mm 5 mps 747 mmHg 75%
    18:00 +20°C° 0 mm 4 mps 747 mmHg 80%
    19:00 +19°C° 0 mm 3 mps 747 mmHg 84%
    20:00 +18°C° 0 mm 2 mps 747 mmHg 89%
    21:00 +17°C° 0 mm 2 mps 747 mmHg 91%
    22:00 +17°C° 0 mm 2 mps 747 mmHg 92%
    23:00 +17°C° 0 mm 2 mps 747 mmHg 94%

    24 July, Wednesday

    Time Temperature Precipitation Wind Pressure Humidity
    00:00 +16°C° 0 mm 2 mps 747 mmHg 94%
    01:00 +16°C° 0 mm 2 mps 747 mmHg 95%
    02:00 +16°C° 0 mm 1 mps 747 mmHg 95%
    03:00 +16°C° 0 mm 2 mps 747 mmHg 95%
    04:00 +16°C° 0 mm 2 mps 747 mmHg 95%
    05:00 +16°C° 0 mm 2 mps 747 mmHg 94%
    06:00 +17°C° 0 mm 2 mps 747 mmHg 90%
    07:00 +18°C° 0 mm 2 mps 747 mmHg 86%
    08:00 +19°C° 0 mm 2 mps 748 mmHg 82%
    09:00 +20°C° 0 mm 2 mps 748 mmHg 78%
    10:00 +23°C° 0 mm 2 mps 748 mmHg 73%
    11:00 +24°C° 0 mm 3 mps 748 mmHg 68%
    12:00 +24°C° 0.1 mm 3 mps 748 mmHg 69%
    13:00 +23°C° 0.1 mm 4 mps 748 mmHg 70%
    14:00 +23°C° 0.1 mm 4 mps 748 mmHg 71%
    15:00 +23°C° 0 mm 4 mps 748 mmHg 72%
    16:00 +24°C° 0 mm 3 mps 748 mmHg 74%
    17:00 +22°C° 0 mm 3 mps 748 mmHg 75%
    18:00 +21°C° 0 mm 2 mps 748 mmHg 80%
    19:00 +20°C° 0 mm 2 mps 748 mmHg 86%
    20:00 +20°C° 0 mm 1 mps 748 mmHg 91%
    21:00 +19°C° 0 mm 1 mps 748 mmHg 92%
    22:00 +19°C° 0 mm 1 mps 748 mmHg 93%
    23:00 +16°C° 0 mm 0 mps 748 mmHg 93%

    25 July, Thursday

    Time Temperature Precipitation Wind Pressure Humidity
    00:00 +16°C° 0 mm 0 mps 748 mmHg 94%
    01:00 +18°C° 0 mm 1 mps 748 mmHg 94%
    02:00 +18°C° 0 mm 1 mps 748 mmHg 94%
    03:00 +18°C° 0 mm 1 mps 748 mmHg 94%
    04:00 +18°C° 0 mm 1 mps 748 mmHg 94%
    05:00 +17°C° 0 mm 2 mps 748 mmHg 94%
    06:00 +18°C° 0 mm 2 mps 748 mmHg 90%
    07:00 +20°C° 0 mm 3 mps 748 mmHg 85%
    08:00 +21°C° 0 mm 3 mps 748 mmHg 80%
    09:00 +23°C° 0.1 mm 4 mps 748 mmHg 76%
    10:00 +25°C° 0.1 mm 4 mps 748 mmHg 71%
    11:00 +26°C° 0.1 mm 5 mps 748 mmHg 67%
    12:00 +27°C° 0.2 mm 5 mps 748 mmHg 66%
    13:00 +27°C° 0.2 mm 5 mps 748 mmHg 65%
    14:00 +28°C° 0.2 mm 6 mps 748 mmHg 64%
    15:00 +28°C° 0.3 mm 5 mps 748 mmHg 67%
    16:00 +27°C° 0.3 mm 5 mps 748 mmHg 69%
    17:00 +27°C° 0.3 mm 5 mps 748 mmHg 72%
    18:00 +26°C° 0.6 mm 4 mps 748 mmHg 77%
    19:00 +23°C° 0.6 mm 4 mps 748 mmHg 83%
    20:00 +21°C° 0.6 mm 3 mps 748 mmHg 88%
    21:00 +21°C° 0 mm 3 mps 748 mmHg 89%
    22:00 +20°C° 0 mm 3 mps 748 mmHg 90%
    23:00 +20°C° 0 mm 3 mps 748 mmHg 91%
    Show more